Flag for Germany Weather past 2 weeks in Siegen, North Rhine-Westphalia, Germany

Now
45 °F

Partly sunny.


Feels Like: 35 °F
Forecast: 35 / 40 °F
Wind: 30 mph from West

Location: Hessen

Current Time: Mar 31, 2015 at 1:55:28 PM

Latest Report: Mar 31, 2015 at 12:50 PM


Visibility: N/A

Pressure: 29.45 "Hg

Humidity: 71%

Dew point: 36 °F

Location of SiegenLocation

Historic Weather in Siegen — Graph

°F

Siegen temperature yesterday

Maximum temperature yesterday: 39 °F (at 11:20 AM)
Minimum temperature yesterday: 32 °F (at 2:50 PM)
Average temperature yesterday: 37 °F

Past Weeks' High & Low Weather Summary

 TemperatureHumidityPressure
High59 °F (Mar 18, 2:20 PM)100% (Mar 19, 7:50 AM)30.30 "Hg (Mar 19, 7:50 AM)
Low30 °F (Mar 22, 7:20 AM)44% (Mar 18, 1:20 PM)29.30 "Hg (Mar 29, 8:50 PM)
Average42 °F80%29.95 "Hg
* Reported Mar 16 11:20 AM — Mar 31 12:20 PM, Siegen, Weather by CustomWeather, © 2015

Note: Actual official high and low records may vary slightly from our data, if they occured in-between our weather recording intervals... More about our weather records

Advertising

Siegen weather history for previous 24 hours

 ConditionsComfort  
Time TempWeatherWind HumidityBarometerVisibility
12:20 PM
Tue, Mar 31
45 °FScattered showers. Partly sunny.30 mph76%29.45 "HgN/A
11:50 AM43 °FBroken clouds.30 mph93%29.42 "HgN/A
11:20 AM41 °FRain. Broken clouds.31 mph100%29.39 "Hg3 mi
10:50 AM41 °FRain. Broken clouds.25 mph100%29.39 "Hg2 mi
10:20 AM43 °FRain showers. Broken clouds.25 mph93%29.36 "Hg3 mi
9:50 AM45 °FLight rain. Broken clouds.33 mph87%29.33 "HgN/A
9:20 AM45 °FLight rain. Partly sunny.28 mph93%29.33 "HgN/A
8:50 AM45 °FPartly sunny.30 mph93%29.30 "HgN/A
8:20 AM46 °FRain. Broken clouds.28 mph93%29.30 "HgN/A
7:50 AM46 °FRain. Passing clouds.35 mph93%29.30 "HgN/A
9:50 PM
Mon, Mar 30
36 °FClear.13 mph70%29.80 "Hg10 mi
9:20 PM36 °FClear.15 mph70%29.80 "Hg10 mi
8:50 PM37 °FSunny.14 mph60%29.80 "Hg10 mi
8:20 PM37 °FSunny.16 mph60%29.80 "Hg10 mi
7:50 PM37 °FSunny.16 mph65%29.80 "Hg10 mi
7:20 PM37 °FPassing clouds.14 mph70%29.80 "HgN/A
6:50 PM39 °FPassing clouds.18 mph61%29.77 "HgN/A
6:20 PM39 °FScattered clouds.20 mph61%29.77 "HgN/A
5:50 PM39 °FScattered clouds.23 mph61%29.77 "HgN/A
5:20 PM39 °FScattered showers. Scattered clouds.21 mph65%29.74 "HgN/A
4:50 PM39 °FScattered showers. Scattered clouds.20 mph70%29.71 "HgN/A
4:20 PM39 °FSnow showers. Broken clouds.22 mph70%29.71 "HgN/A
3:50 PM37 °FScattered showers. Scattered clouds.25 mph87%29.71 "HgN/A
3:20 PM36 °FScattered showers. Broken clouds.17 mph100%29.68 "HgN/A
2:50 PM32 °FIce fog.22 mph100%29.68 "Hg2 mi
2:20 PM34 °FBroken clouds.16 mph100%29.65 "HgN/A
1:50 PM34 °FSnow showers. Broken clouds.20 mph93%29.65 "Hg2 mi
1:20 PM39 °FScattered showers. Partly sunny.20 mph65%29.62 "HgN/A
Weather by CustomWeather, © 2015

See weather overviewHow to use our weather pages